Location: Gebenbach
(49.5378°N, 11.8735°E)
Time: 14:45:04
(UTC+00:00)

CZ-4C R/B - Pass Details

Date: 29 October 2020
Orbit: 624 x 1378 km, 63.4° (Epoch: 28 November)

Event Time Altitude Azimuth Distance (km) Brightness Sun altitude
Rises 18:39:49 0° 316° (NW) 3,696 6.3 -27.2°
Reaches altitude 10° 18:42:17 10° 320° (NW) 2,850 5.5 -27.6°
Maximum altitude 18:49:07 61° 41° (NE) 1,333 2.9 -28.7°
Enters shadow 18:49:39 59° 59° (ENE) 1,359 2.9 -28.7°
